Elizabeth City Cg Air Station Regional Airport
KECG : now visible

Airfield :











YOU CAN JOIN US ON...

 
LOGIN :

Register | Disclaimer

   EN    FR    IT 

 









Legend :    VFR   Marginal VFR   IFR   Intensive IFR   Very Intensive IFR
Visi :
Ceiling :
>= 8 km
>= 3000ft
5 to 8 km
1000 to 3000 ft
1500m to 5 km
500 to 1000 ft
800 to 1500m
200 to 500 ft
< 800m
< 200 ft
Symbols :   Thunderstorms  Fog  Heavy snow  Heavy precipitations  Wind > 20 kt







- Airport Elevation : 12 ft


KECG - Elizabeth City Cg Air Station Regional

CURRENT METAR :
  • 180954Z AUTO 20009KT 10SM CLR 27/24 A2995 RMK AO2 SLP142 T02720244

EXPIRED METARs :
  • 180854Z AUTO 21010KT 10SM CLR 27/24 A2995 RMK AO2 SLP143 T02720239 56012
  • 180754Z AUTO 22008KT 10SM CLR 27/24 A2996 RMK AO2 SLP146 T02720239

TAF KECG
Valid from the 18 at 06:00 until the 19 at 06:00 UTC


180549Z 1806/1906 21010KT P6SM VCSH SCT060 BKN120
FM181700 22010G18KT P6SM BKN060
FM190000 21009KT P6SM BKN120
KZDC FIR / North America



MET'MAP, your aeronautical weather chart ! - Copyright ORBIFLY December 2007 - Disclaimer

ORBIFLY MET'MAP TEAM :

Programming & Development : Alexandra Zaïnal
Concept & Development : Baudouin d'Aumeries
Co-Development & Prog : Marc-Olivier Méhu
Technical & hardware support : Manuel Goepfert

Contact : metmap@orbifly.com




SOURCES & CREDITS :

   NOAA       Earth
Advisory